• In Hungary
  • List of Countries
  • For 7 days
  • Water Temperature
  • Satellite Maps
  • Weather Map
  • News
  • Weather Widgets
  • user-avatar
    Login

    Hourly Weather Tarpon Springs

    Today, 23 January, Tuesday

    Time Temperature Precipitation Wind Pressure Humidity
    00:00 +21°C° 1.6 mm 2 mps 762 mmHg 85%
    01:00 +20°C° 1 mm 2 mps 762 mmHg 86%
    02:00 +20°C° 1 mm 3 mps 762 mmHg 86%
    03:00 +20°C° 1 mm 3 mps 762 mmHg 87%
    04:00 +20°C° 0.5 mm 4 mps 762 mmHg 86%
    05:00 +20°C° 0.5 mm 4 mps 762 mmHg 85%
    06:00 +20°C° 0.5 mm 5 mps 762 mmHg 83%
    07:00 +21°C° 0.4 mm 5 mps 762 mmHg 81%
    08:00 +22°C° 0.4 mm 5 mps 763 mmHg 78%
    09:00 +23°C° 0.4 mm 5 mps 763 mmHg 75%
    10:00 +25°C° 0 mm 5 mps 763 mmHg 73%
    11:00 +26°C° 0 mm 5 mps 763 mmHg 71%
    12:00 +27°C° 0 mm 5 mps 763 mmHg 69%
    13:00 +26°C° 0 mm 5 mps 763 mmHg 73%
    14:00 +24°C° 0 mm 6 mps 762 mmHg 76%
    15:00 +23°C° 0 mm 6 mps 762 mmHg 80%
    16:00 +22°C° 0 mm 6 mps 763 mmHg 79%
    17:00 +21°C° 0 mm 5 mps 763 mmHg 79%
    18:00 +19°C° 0 mm 5 mps 763 mmHg 78%
    19:00 +19°C° 0 mm 5 mps 764 mmHg 77%
    20:00 +19°C° 0 mm 5 mps 764 mmHg 75%
    21:00 +17°C° 0 mm 5 mps 765 mmHg 73%
    22:00 +16°C° 0 mm 5 mps 765 mmHg 71%
    23:00 +16°C° 0 mm 6 mps 765 mmHg 68%

    Tomorrow, 24 January, Wednesday

    Time Temperature Precipitation Wind Pressure Humidity
    00:00 +15°C° 0 mm 6 mps 765 mmHg 65%
    01:00 +15°C° 0 mm 6 mps 765 mmHg 62%
    02:00 +14°C° 0 mm 6 mps 765 mmHg 59%
    03:00 +12°C° 0 mm 7 mps 765 mmHg 56%
    04:00 +13°C° 0 mm 6 mps 766 mmHg 56%
    05:00 +11°C° 0 mm 6 mps 766 mmHg 56%
    06:00 +10°C° 0 mm 6 mps 766 mmHg 57%
    07:00 +11°C° 0 mm 6 mps 767 mmHg 55%
    08:00 +13°C° 0 mm 6 mps 767 mmHg 52%
    09:00 +13°C° 0 mm 6 mps 768 mmHg 50%
    10:00 +15°C° 0 mm 5 mps 768 mmHg 46%
    11:00 +17°C° 0 mm 5 mps 767 mmHg 41%
    12:00 +19°C° 0 mm 5 mps 767 mmHg 36%
    13:00 +19°C° 0 mm 5 mps 767 mmHg 36%
    14:00 +20°C° 0 mm 5 mps 766 mmHg 36%
    15:00 +20°C° 0 mm 6 mps 766 mmHg 35%
    16:00 +19°C° 0 mm 6 mps 767 mmHg 40%
    17:00 +16°C° 0 mm 6 mps 767 mmHg 44%
    18:00 +15°C° 0 mm 6 mps 768 mmHg 48%
    19:00 +15°C° 0 mm 6 mps 768 mmHg 47%
    20:00 +14°C° 0 mm 7 mps 769 mmHg 47%
    21:00 +14°C° 0 mm 7 mps 769 mmHg 47%
    22:00 +12°C° 0 mm 7 mps 769 mmHg 46%
    23:00 +12°C° 0 mm 7 mps 769 mmHg 45%

    Day after tomorrow, 25 January, Thursday

    Time Temperature Precipitation Wind Pressure Humidity
    00:00 +12°C° 0 mm 7 mps 769 mmHg 44%
    01:00 +12°C° 0 mm 7 mps 769 mmHg 43%
    02:00 +11°C° 0 mm 7 mps 769 mmHg 43%
    03:00 +11°C° 0 mm 7 mps 769 mmHg 42%
    04:00 +11°C° 0 mm 7 mps 769 mmHg 42%
    05:00 +10°C° 0 mm 7 mps 770 mmHg 41%
    06:00 +10°C° 0 mm 7 mps 770 mmHg 41%
    07:00 +10°C° 0 mm 7 mps 771 mmHg 41%
    08:00 +11°C° 0 mm 7 mps 771 mmHg 40%
    09:00 +11°C° 0 mm 8 mps 772 mmHg 39%
    10:00 +14°C° 0 mm 7 mps 771 mmHg 39%
    11:00 +15°C° 0 mm 7 mps 771 mmHg 38%
    12:00 +17°C° 0 mm 7 mps 771 mmHg 37%
    13:00 +17°C° 0 mm 7 mps 770 mmHg 38%
    14:00 +18°C° 0 mm 7 mps 770 mmHg 39%
    15:00 +18°C° 0 mm 7 mps 770 mmHg 40%
    16:00 +17°C° 0 mm 7 mps 770 mmHg 45%
    17:00 +16°C° 0 mm 7 mps 771 mmHg 50%
    18:00 +13°C° 0 mm 8 mps 771 mmHg 55%
    19:00 +12°C° 0 mm 8 mps 771 mmHg 59%
    20:00 +12°C° 0 mm 8 mps 772 mmHg 63%
    21:00 +11°C° 0 mm 8 mps 772 mmHg 66%
    22:00 +11°C° 0 mm 8 mps 772 mmHg 70%
    23:00 +11°C° 0 mm 7 mps 772 mmHg 74%

    26 January, Friday

    Time Temperature Precipitation Wind Pressure Humidity
    00:00 +10°C° 0 mm 7 mps 771 mmHg 77%
    01:00 +10°C° 0 mm 7 mps 771 mmHg 78%
    02:00 +10°C° 0 mm 7 mps 771 mmHg 79%
    03:00 +10°C° 0 mm 7 mps 771 mmHg 80%
    04:00 +10°C° 0 mm 7 mps 771 mmHg 81%
    05:00 +10°C° 0 mm 7 mps 771 mmHg 82%
    06:00 +10°C° 0 mm 7 mps 771 mmHg 83%
    07:00 +12°C° 0 mm 8 mps 771 mmHg 77%
    08:00 +15°C° 0 mm 8 mps 772 mmHg 72%
    09:00 +17°C° 0 mm 8 mps 772 mmHg 66%
    10:00 +18°C° 0 mm 8 mps 772 mmHg 63%
    11:00 +20°C° 0 mm 7 mps 771 mmHg 59%
    12:00 +21°C° 0 mm 7 mps 771 mmHg 55%
    13:00 +21°C° 0 mm 7 mps 770 mmHg 55%
    14:00 +21°C° 0 mm 7 mps 770 mmHg 55%
    15:00 +21°C° 0 mm 7 mps 769 mmHg 55%
    16:00 +20°C° 0 mm 7 mps 769 mmHg 60%
    17:00 +18°C° 0 mm 7 mps 770 mmHg 64%
    18:00 +17°C° 0 mm 6 mps 770 mmHg 68%
    19:00 +17°C° 0 mm 6 mps 770 mmHg 71%
    20:00 +17°C° 0 mm 6 mps 770 mmHg 73%
    21:00 +16°C° 0 mm 6 mps 771 mmHg 75%
    22:00 +16°C° 0 mm 6 mps 770 mmHg 76%
    23:00 +16°C° 0 mm 5 mps 770 mmHg 77%

    27 January, Saturday

    Time Temperature Precipitation Wind Pressure Humidity
    00:00 +16°C° 0 mm 5 mps 770 mmHg 79%
    01:00 +15°C° 0 mm 5 mps 769 mmHg 81%
    02:00 +15°C° 0 mm 5 mps 769 mmHg 83%
    03:00 +15°C° 0 mm 5 mps 769 mmHg 84%
    04:00 +14°C° 0 mm 5 mps 769 mmHg 86%
    05:00 +14°C° 0 mm 5 mps 769 mmHg 88%
    06:00 +14°C° 0 mm 5 mps 769 mmHg 89%
    07:00 +16°C° 0 mm 5 mps 769 mmHg 83%
    08:00 +17°C° 0 mm 5 mps 770 mmHg 76%
    09:00 +20°C° 0 mm 6 mps 770 mmHg 70%
    10:00 +21°C° 0 mm 6 mps 769 mmHg 65%
    11:00 +23°C° 0 mm 5 mps 769 mmHg 59%
    12:00 +25°C° 0 mm 5 mps 768 mmHg 54%
    13:00 +25°C° 0 mm 5 mps 768 mmHg 56%
    14:00 +23°C° 0 mm 5 mps 767 mmHg 59%
    15:00 +22°C° 0 mm 5 mps 766 mmHg 61%
    16:00 +22°C° 0 mm 5 mps 766 mmHg 64%
    17:00 +21°C° 0 mm 5 mps 767 mmHg 66%
    18:00 +21°C° 0 mm 5 mps 767 mmHg 68%
    19:00 +21°C° 0 mm 5 mps 767 mmHg 69%
    20:00 +21°C° 0 mm 5 mps 767 mmHg 70%
    21:00 +21°C° 0 mm 6 mps 766 mmHg 70%
    22:00 +20°C° 0 mm 6 mps 766 mmHg 72%
    23:00 +20°C° 0 mm 6 mps 766 mmHg 75%

    28 January, Sunday

    Time Temperature Precipitation Wind Pressure Humidity
    00:00 +20°C° 0 mm 6 mps 765 mmHg 77%
    01:00 +20°C° 0.6 mm 6 mps 765 mmHg 79%
    02:00 +20°C° 0.6 mm 6 mps 765 mmHg 81%
    03:00 +20°C° 0.6 mm 5 mps 764 mmHg 83%
    04:00 +19°C° 3.8 mm 6 mps 765 mmHg 85%
    05:00 +19°C° 3.8 mm 6 mps 765 mmHg 86%
    06:00 +19°C° 3.8 mm 6 mps 765 mmHg 88%
    07:00 +20°C° 7.1 mm 6 mps 765 mmHg 88%
    08:00 +20°C° 7.1 mm 7 mps 765 mmHg 88%
    09:00 +20°C° 7.1 mm 7 mps 765 mmHg 88%
    10:00 +20°C° 7.4 mm 7 mps 765 mmHg 88%
    11:00 +20°C° 7.4 mm 8 mps 764 mmHg 88%
    12:00 +19°C° 7.4 mm 9 mps 764 mmHg 88%
    13:00 +20°C° 3.9 mm 8 mps 763 mmHg 88%
    14:00 +20°C° 3.9 mm 8 mps 763 mmHg 88%
    15:00 +18°C° 3.9 mm 7 mps 763 mmHg 89%
    16:00 +18°C° 1.6 mm 7 mps 763 mmHg 89%
    17:00 +18°C° 1.6 mm 7 mps 763 mmHg 90%
    18:00 +19°C° 1.6 mm 6 mps 764 mmHg 90%
    19:00 +19°C° 0.1 mm 6 mps 764 mmHg 90%
    20:00 +18°C° 0.1 mm 7 mps 764 mmHg 90%
    21:00 +18°C° 0.1 mm 7 mps 764 mmHg 90%
    22:00 +18°C° 0 mm 7 mps 764 mmHg 90%
    23:00 +18°C° 0 mm 7 mps 764 mmHg 90%
    Show more